When you browse on this site, cookies collect data to enhance your experience and personalize the content and advertising you see.
Visit our Privacy Policy to learn more. By continuing to use the site, you agree to this use of cookies and data.
  • In Deutschland
  • Länderverzeichnis
  • Für 7 Tage
  • Wassertemperatur
  • Satellitenkarten
  • Wetterkarte
  • Widgets
  • user-avatar
    Anmelden

    Stündliche Wetter Lezhe

    Heute, 22 Mai, Mittwoch

    Zeit Temperatur Niederschläge Wind Luftdruck Luftfeuchtigkeit
    00:00 +14°C° 0 mm 2 m/S 737 mmHg 83%
    01:00 +14°C° 0 mm 2 m/S 737 mmHg 83%
    02:00 +14°C° 0 mm 2 m/S 737 mmHg 82%
    03:00 +14°C° 0 mm 2 m/S 737 mmHg 82%
    04:00 +14°C° 0 mm 2 m/S 737 mmHg 82%
    05:00 +15°C° 0 mm 1 m/S 737 mmHg 78%
    06:00 +16°C° 0 mm 1 m/S 737 mmHg 74%
    07:00 +18°C° 0 mm 1 m/S 737 mmHg 71%
    08:00 +19°C° 0 mm 1 m/S 737 mmHg 67%
    09:00 +21°C° 0 mm 1 m/S 737 mmHg 64%
    10:00 +21°C° 0 mm 2 m/S 737 mmHg 60%
    11:00 +21°C° 0 mm 2 m/S 737 mmHg 60%
    12:00 +21°C° 0 mm 2 m/S 737 mmHg 59%
    13:00 +21°C° 0 mm 3 m/S 737 mmHg 59%
    14:00 +21°C° 0 mm 3 m/S 737 mmHg 58%
    15:00 +21°C° 0 mm 2 m/S 737 mmHg 58%
    16:00 +20°C° 0 mm 2 m/S 737 mmHg 57%
    17:00 +19°C° 0 mm 2 m/S 737 mmHg 63%
    18:00 +18°C° 0 mm 1 m/S 737 mmHg 70%
    19:00 +14°C° 0 mm 0 m/S 737 mmHg 76%
    20:00 +14°C° 0 mm 1 m/S 737 mmHg 75%
    21:00 +14°C° 0 mm 1 m/S 737 mmHg 74%
    22:00 +13°C° 0 mm 1 m/S 737 mmHg 72%
    23:00 +13°C° 0 mm 1 m/S 737 mmHg 69%

    Morgen, 23 Mai, Donnerstag

    Zeit Temperatur Niederschläge Wind Luftdruck Luftfeuchtigkeit
    00:00 +13°C° 0 mm 1 m/S 737 mmHg 67%
    01:00 +13°C° 0 mm 1 m/S 737 mmHg 64%
    02:00 +13°C° 0 mm 1 m/S 737 mmHg 63%
    03:00 +13°C° 0 mm 1 m/S 737 mmHg 63%
    04:00 +13°C° 0 mm 1 m/S 737 mmHg 63%
    05:00 +14°C° 0 mm 1 m/S 737 mmHg 61%
    06:00 +16°C° 0 mm 1 m/S 737 mmHg 59%
    07:00 +17°C° 0 mm 0 m/S 737 mmHg 58%
    08:00 +20°C° 0 mm 1 m/S 737 mmHg 54%
    09:00 +22°C° 0 mm 1 m/S 737 mmHg 50%
    10:00 +23°C° 0 mm 1 m/S 737 mmHg 47%
    11:00 +23°C° 0 mm 2 m/S 737 mmHg 47%
    12:00 +24°C° 0 mm 3 m/S 737 mmHg 47%
    13:00 +24°C° 0 mm 3 m/S 736 mmHg 47%
    14:00 +22°C° 0 mm 3 m/S 736 mmHg 51%
    15:00 +21°C° 0 mm 3 m/S 735 mmHg 56%
    16:00 +20°C° 0 mm 3 m/S 735 mmHg 60%
    17:00 +19°C° 0 mm 2 m/S 735 mmHg 68%
    18:00 +17°C° 0 mm 2 m/S 735 mmHg 77%
    19:00 +15°C° 0 mm 1 m/S 735 mmHg 85%
    20:00 +15°C° 0 mm 1 m/S 736 mmHg 86%
    21:00 +14°C° 0 mm 1 m/S 736 mmHg 87%
    22:00 +14°C° 0 mm 1 m/S 736 mmHg 88%
    23:00 +14°C° 0 mm 1 m/S 736 mmHg 87%

    übermorgen, 24 Mai, Freitag

    Zeit Temperatur Niederschläge Wind Luftdruck Luftfeuchtigkeit
    00:00 +14°C° 0 mm 1 m/S 736 mmHg 85%
    01:00 +14°C° 0 mm 1 m/S 735 mmHg 84%
    02:00 +14°C° 0 mm 1 m/S 735 mmHg 84%
    03:00 +14°C° 0 mm 1 m/S 735 mmHg 84%
    04:00 +14°C° 0 mm 1 m/S 735 mmHg 84%
    05:00 +15°C° 0 mm 1 m/S 735 mmHg 80%
    06:00 +16°C° 0 mm 1 m/S 735 mmHg 76%
    07:00 +18°C° 0 mm 1 m/S 735 mmHg 72%
    08:00 +20°C° 0 mm 1 m/S 735 mmHg 66%
    09:00 +22°C° 0 mm 1 m/S 735 mmHg 60%
    10:00 +23°C° 0 mm 1 m/S 735 mmHg 54%
    11:00 +23°C° 0.4 mm 2 m/S 735 mmHg 57%
    12:00 +22°C° 0.4 mm 3 m/S 735 mmHg 60%
    13:00 +22°C° 0.4 mm 3 m/S 735 mmHg 63%
    14:00 +21°C° 0.6 mm 3 m/S 734 mmHg 65%
    15:00 +21°C° 0.6 mm 2 m/S 734 mmHg 68%
    16:00 +20°C° 0.6 mm 2 m/S 734 mmHg 71%
    17:00 +19°C° 0.3 mm 2 m/S 734 mmHg 77%
    18:00 +18°C° 0.3 mm 1 m/S 734 mmHg 83%
    19:00 +16°C° 0.3 mm 1 m/S 735 mmHg 88%
    20:00 +15°C° 0 mm 1 m/S 735 mmHg 89%
    21:00 +15°C° 0 mm 1 m/S 735 mmHg 89%
    22:00 +14°C° 0 mm 1 m/S 736 mmHg 90%
    23:00 +14°C° 0 mm 1 m/S 736 mmHg 89%

    25 Mai, Samstag

    Zeit Temperatur Niederschläge Wind Luftdruck Luftfeuchtigkeit
    00:00 +14°C° 0 mm 1 m/S 736 mmHg 89%
    01:00 +14°C° 0 mm 1 m/S 736 mmHg 88%
    02:00 +13°C° 0 mm 1 m/S 736 mmHg 88%
    03:00 +13°C° 0 mm 1 m/S 736 mmHg 87%
    04:00 +13°C° 0 mm 1 m/S 736 mmHg 87%
    05:00 +15°C° 0 mm 1 m/S 736 mmHg 82%
    06:00 +16°C° 0 mm 1 m/S 737 mmHg 77%
    07:00 +19°C° 0 mm 1 m/S 737 mmHg 72%
    08:00 +20°C° 0 mm 1 m/S 737 mmHg 68%
    09:00 +21°C° 0 mm 1 m/S 737 mmHg 63%
    10:00 +23°C° 0 mm 2 m/S 737 mmHg 59%
    11:00 +23°C° 0 mm 2 m/S 737 mmHg 59%
    12:00 +23°C° 0 mm 2 m/S 737 mmHg 58%
    13:00 +24°C° 0 mm 2 m/S 737 mmHg 58%
    14:00 +23°C° 0 mm 2 m/S 737 mmHg 59%
    15:00 +23°C° 0 mm 2 m/S 737 mmHg 60%
    16:00 +23°C° 0 mm 2 m/S 737 mmHg 61%
    17:00 +21°C° 0 mm 1 m/S 737 mmHg 69%
    18:00 +19°C° 0 mm 1 m/S 737 mmHg 77%
    19:00 +15°C° 0 mm 0 m/S 737 mmHg 84%
    20:00 +16°C° 0 mm 1 m/S 738 mmHg 85%
    21:00 +15°C° 0 mm 1 m/S 738 mmHg 86%
    22:00 +15°C° 0 mm 1 m/S 738 mmHg 86%
    23:00 +15°C° 0 mm 1 m/S 738 mmHg 85%

    26 Mai, Sonntag

    Zeit Temperatur Niederschläge Wind Luftdruck Luftfeuchtigkeit
    00:00 +14°C° 0 mm 1 m/S 738 mmHg 83%
    01:00 +14°C° 0 mm 1 m/S 738 mmHg 81%
    02:00 +14°C° 0 mm 1 m/S 738 mmHg 80%
    03:00 +14°C° 0 mm 1 m/S 738 mmHg 79%
    04:00 +14°C° 0 mm 1 m/S 738 mmHg 78%
    05:00 +15°C° 0 mm 1 m/S 738 mmHg 72%
    06:00 +18°C° 0 mm 1 m/S 738 mmHg 66%
    07:00 +20°C° 0 mm 1 m/S 738 mmHg 61%
    08:00 +21°C° 0 mm 1 m/S 738 mmHg 57%
    09:00 +23°C° 0 mm 1 m/S 738 mmHg 53%
    10:00 +24°C° 0 mm 2 m/S 738 mmHg 49%
    11:00 +24°C° 0 mm 2 m/S 738 mmHg 49%
    12:00 +25°C° 0 mm 2 m/S 738 mmHg 48%
    13:00 +25°C° 0 mm 2 m/S 737 mmHg 47%
    14:00 +25°C° 0 mm 2 m/S 737 mmHg 49%
    15:00 +24°C° 0 mm 2 m/S 737 mmHg 51%
    16:00 +24°C° 0 mm 2 m/S 737 mmHg 53%
    17:00 +21°C° 0 mm 2 m/S 737 mmHg 61%
    18:00 +20°C° 0 mm 1 m/S 737 mmHg 69%
    19:00 +18°C° 0 mm 1 m/S 737 mmHg 77%
    20:00 +18°C° 0 mm 1 m/S 737 mmHg 77%
    21:00 +18°C° 0 mm 1 m/S 737 mmHg 77%
    22:00 +16°C° 0 mm 1 m/S 738 mmHg 76%
    23:00 +16°C° 0 mm 1 m/S 738 mmHg 73%

    27 Mai, Montag

    Zeit Temperatur Niederschläge Wind Luftdruck Luftfeuchtigkeit
    00:00 +16°C° 0 mm 1 m/S 737 mmHg 69%
    01:00 +16°C° 0 mm 1 m/S 737 mmHg 65%
    02:00 +16°C° 0 mm 1 m/S 737 mmHg 63%
    03:00 +16°C° 0 mm 1 m/S 737 mmHg 60%
    04:00 +16°C° 0 mm 1 m/S 737 mmHg 57%
    05:00 +19°C° 0 mm 1 m/S 737 mmHg 56%
    06:00 +21°C° 0 mm 1 m/S 737 mmHg 55%
    07:00 +22°C° 0 mm 1 m/S 737 mmHg 53%
    08:00 +24°C° 0 mm 1 m/S 737 mmHg 48%
    09:00 +26°C° 0 mm 1 m/S 737 mmHg 43%
    10:00 +28°C° 0 mm 1 m/S 737 mmHg 38%
    11:00 +29°C° 0 mm 1 m/S 737 mmHg 37%
    12:00 +30°C° 0 mm 1 m/S 737 mmHg 36%
    13:00 +30°C° 0 mm 2 m/S 737 mmHg 35%
    14:00 +30°C° 0 mm 2 m/S 736 mmHg 39%
    15:00 +29°C° 0 mm 2 m/S 736 mmHg 42%
    16:00 +29°C° 0 mm 2 m/S 736 mmHg 46%
    17:00 +27°C° 0 mm 2 m/S 736 mmHg 52%
    18:00 +25°C° 0 mm 1 m/S 736 mmHg 57%
    19:00 +21°C° 0 mm 0 m/S 736 mmHg 63%
    20:00 +22°C° 0 mm 1 m/S 736 mmHg 65%
    21:00 +22°C° 0 mm 1 m/S 736 mmHg 67%
    22:00 +21°C° 0 mm 1 m/S 737 mmHg 70%
    23:00 +21°C° 0 mm 1 m/S 736 mmHg 69%
    Mehr zeigen